Flag for U.S.A. Weather past 2 weeks in Garland, Texas, U.S.A.

Now
55 °F

Mostly cloudy.


Feels Like: 54 °F
Forecast: 56 / 73 °F
Wind: 6 mph from North

Location: Mesquite Metro Airport


UV Index: 7 (High)

Visibility: 10 mi


Pressure: 30.24 "Hg

Humidity: 88%

Dew point: 52 °F

Location of GarlandLocation

Historic Weather in Garland

°F

Garland temperature yesterday

Maximum temperature yesterday: 64 °F (at 1:55 PM)
Minimum temperature yesterday: 47 °F (at 5:35 AM)
Average temperature yesterday: 56 °F

Past Weeks' High & Low Weather Summary

 TemperatureHumidityPressure
High84 °F (Apr 9, 6:55 PM)94% (Apr 6, 12:55 PM)30.33 "Hg (Apr 6, 12:55 PM)
Low36 °F (Apr 15, 7:55 AM)20% (Apr 15, 3:55 PM)26.28 "Hg (Apr 3, 4:55 PM)
Average58 °F67%29.99 "Hg
* Reported Apr 3 7:55 AM — Apr 18 7:52 AM, Garland, Weather by CustomWeather, © 2014

Note: Actual official high and low records may vary slightly from our data, if they occured in-between our weather recording intervals... More about our weather records

Advertising

Historic Weather Conditions — Data for Previous 24 hours

 ConditionsComfort  
Time TempWeatherWind HumidityBarometerVisibility
7:52 AM
Apr 18
55 °FMostly cloudy.6 mph88%30.24 "Hg10 mi
6:50 AM54 °FMostly cloudy.No wind94%30.21 "Hg10 mi
5:35 AM56 °FOvercast.3 mph87%30.19 "Hg10 mi
5:15 AM56 °FOvercast.No wind88%30.19 "Hg10 mi
4:55 AM57 °FOvercast.No wind90%30.19 "Hg7 mi
4:15 AM56 °FMostly cloudy.3 mph91%30.19 "Hg7 mi
3:55 AM56 °FOvercast.No wind92%30.19 "Hg5 mi
3:35 AM56 °FMostly cloudy.3 mph92%30.19 "Hg7 mi
3:15 AM56 °FMostly cloudy.No wind92%30.18 "Hg7 mi
2:55 AM56 °FMostly cloudy.No wind90%30.18 "Hg7 mi
2:35 AM56 °FMostly cloudy.5 mph89%30.19 "Hg10 mi
2:15 AM57 °FMostly cloudy.No wind87%30.19 "Hg10 mi
1:55 AM56 °FOvercast.6 mph88%30.20 "Hg10 mi
1:35 AM56 °FMostly cloudy.7 mph87%30.20 "Hg7 mi
1:15 AM56 °FMostly cloudy.5 mph87%30.20 "Hg10 mi
12:55 AM57 °FMostly cloudy.3 mph85%30.21 "Hg10 mi
12:35 AM58 °FOvercast.No wind78%30.21 "Hg10 mi
12:15 AM59 °FOvercast.No wind72%30.21 "Hg10 mi
11:55 PM
Apr 17
59 °FMostly cloudy.No wind74%30.21 "Hg10 mi
11:35 PM59 °FOvercast.3 mph73%30.21 "Hg10 mi
11:15 PM59 °FMostly cloudy.6 mph76%30.20 "Hg10 mi
10:55 PM60 °FOvercast.5 mph72%30.20 "Hg10 mi
10:35 PM60 °FOvercast.3 mph73%30.20 "Hg10 mi
10:15 PM60 °FOvercast.3 mph70%30.20 "Hg10 mi
9:55 PM61 °FMostly cloudy.3 mph69%30.19 "Hg10 mi
7:55 PM61 °FMore clouds than sun.6 mph72%30.15 "Hg10 mi
6:55 PM63 °FOvercast.6 mph68%30.14 "Hg10 mi
5:55 PM63 °FCloudy.3 mph68%30.13 "Hg10 mi
4:55 PM64 °FOvercast.No wind64%30.12 "Hg10 mi
3:55 PM64 °FOvercast.No wind64%30.12 "Hg10 mi
2:55 PM64 °FMore clouds than sun.7 mph64%30.14 "Hg10 mi
1:55 PM64 °FOvercast.5 mph64%30.15 "Hg10 mi
12:55 PM63 °FScattered clouds.7 mph68%30.16 "Hg10 mi
11:55 AM63 °FScattered clouds.8 mph68%30.17 "Hg10 mi
10:55 AM63 °FScattered clouds.8 mph68%30.16 "Hg10 mi
9:55 AM59 °FScattered clouds.6 mph72%30.15 "Hg10 mi
8:55 AM54 °FOvercast.8 mph82%30.14 "Hg10 mi
Weather by CustomWeather, © 2014

See weather overview